Погода в Полдневе

Россия / Челябинская область     56°10′37″N   61°38′21″E
темп.,
°C
ветер,
м/с
пор.,
м/с
влажн.,
%
обл.,
%
осадки,
мм/ч
давл.,
гПа
погр.,
м
8 марта, пн
пн823:00−15зсз349492 0.1 100762
02:00−18зсз459224 0.0 100866
05:00−20з349312 0.0 100931
08:00−20юз34940 0.0 100933
11:00−14ююз589050 0.0 1008284
14:00−11ю71092100 0.1 1006558
17:00−8ю71285100 0.2 1004732
20:00−7ююз61288100 0.0 1002317
9 марта, вт
вт923:00−7юз6138792 0.0 1003293
02:00−9юз5128514 0.0 1004225
05:00−11ююз489017 0.0 1004146
08:00−10ю3895100 0.0 1002196
11:00−3юз81480100 0.3 10021587
14:00−4сз7108876 0.3 1004979
17:00−4з498182 0.4 1008385
20:00−10зюз448336 0.0 101051
10 марта, ср
ср1023:00−12зюз348854 0.0 101223
02:00−14сз1190100 0.0 101120
05:00−13вюв2290100 0.0 100921
08:00−12в3693100 0.0 1007173
11:00−9в5895100 0.4 1005360
14:00−7в6995100 1.2 1002502
17:00−6в71095100 2.9 1000734
20:00−7всв71295100 1.7 1000665
11 марта, чт
чт1123:00−9св81294100 3.1 1001612
02:00−14ссв91494100 0.9 1002489
05:00−17с81395100 1.7 1004472
08:00−18с71196100 0.6 1006432
11:00−17с61093100 1.0 1008435
14:00−15ссз588497 0.1 1008512
17:00−14ссз478365 0.1 1010710
20:00−17с3596100 0.2 1012145
12 марта, пт
пт1223:00−19ссз1298100 0.4 101420
02:00−21с229997 0.2 101521
05:00−25ссз239958 0.2 101620
08:00−24сз119676 0.0 101820
11:00−18ююз339388 0.1 1019251
14:00−13ююз3592100 0.2 1019384
17:00−9зсз5786100 0.5 1019916
20:00−13з4588100 0.1 102197